Time,TemperatureF,DewpointF,PressureIn,WindDirection,WindDirectionDegrees,WindSpeedMPH,WindSpeedGustMPH,Humidity,HourlyPrecipIn,Conditions,Clouds,dailyrainin,SoftwareType,DateUTC
2013-09-13 00:01:00,77.7,70.7,29.95,NNE,21,0.0,0.0,79,0.00,,,0.00,WeatherCatV1.15B25,2013-09-13 05:01:00,
2013-09-13 00:06:00,77.6,70.6,29.95,NNE,21,1.0,1.0,79,0.00,,,0.00,WeatherCatV1.15B25,2013-09-13 05:06:00,
2013-09-13 00:11:00,77.1,70.4,29.95,NNE,21,0.0,2.0,80,0.00,,,0.00,WeatherCatV1.15B25,2013-09-13 05:11:00,
2013-09-13 00:16:00,76.7,70.4,29.95,NNE,21,0.0,1.0,81,0.00,,,0.00,WeatherCatV1.15B25,2013-09-13 05:16:00,
2013-09-13 00:22:00,76.5,70.2,29.95,NNE,21,1.0,1.0,81,0.00,,,0.00,WeatherCatV1.15B25,2013-09-13 05:22:00,
2013-09-13 00:27:00,76.4,70.5,29.95,NNE,21,0.0,1.0,82,0.00,,,0.00,WeatherCatV1.15B25,2013-09-13 05:27:00,
2013-09-13 00:32:00,76.2,70.3,29.95,NNE,21,0.0,1.0,82,0.00,,,0.00,WeatherCatV1.15B25,2013-09-13 05:32:00,
2013-09-13 00:37:00,76.0,70.4,29.95,NNE,21,2.0,2.0,83,0.00,,,0.00,WeatherCatV1.15B25,2013-09-13 05:37:00,
2013-09-13 00:42:00,75.9,70.4,29.95,NNE,21,0.0,0.0,83,0.00,,,0.00,WeatherCatV1.15B25,2013-09-13 05:42:00,
2013-09-13 00:47:00,75.8,70.6,29.95,NNE,21,1.0,2.0,84,0.00,,,0.00,WeatherCatV1.15B25,2013-09-13 05:47:00,
2013-09-13 00:52:00,75.7,70.5,29.95,NNE,21,0.0,1.0,84,0.00,,,0.00,WeatherCatV1.15B25,2013-09-13 05:52:00,
2013-09-13 00:57:00,75.5,70.7,29.95,NNE,21,0.0,1.0,85,0.00,,,0.00,WeatherCatV1.15B25,2013-09-13 05:57:00,
2013-09-13 01:02:00,75.3,70.5,29.95,NNE,21,0.0,0.0,85,0.00,,,0.00,WeatherCatV1.15B25,2013-09-13 06:02:00,
2013-09-13 01:07:00,75.2,70.4,29.95,NNE,21,0.0,0.0,85,0.00,,,0.00,WeatherCatV1.15B25,2013-09-13 06:07:00,
2013-09-13 01:12:00,75.0,70.2,29.95,NNE,21,0.0,0.0,85,0.00,,,0.00,WeatherCatV1.15B25,2013-09-13 06:12:00,
2013-09-13 01:17:00,74.9,70.1,29.95,NNE,21,0.0,0.0,85,0.00,,,0.00,WeatherCatV1.15B25,2013-09-13 06:17:00,
2013-09-13 01:22:00,74.7,70.2,29.95,NNE,21,1.0,3.0,86,0.00,,,0.00,WeatherCatV1.15B25,2013-09-13 06:22:00,
2013-09-13 01:27:00,74.7,70.6,29.95,NNE,21,2.0,3.0,87,0.00,,,0.00,WeatherCatV1.15B25,2013-09-13 06:27:00,
2013-09-13 01:32:00,74.8,70.7,29.95,NNE,21,3.0,3.0,87,0.00,,,0.00,WeatherCatV1.15B25,2013-09-13 06:32:00,
2013-09-13 01:37:00,74.9,70.8,29.95,NNE,21,1.0,2.0,87,0.00,,,0.00,WeatherCatV1.15B25,2013-09-13 06:37:00,
2013-09-13 01:42:00,74.9,70.8,29.95,NNE,21,1.0,2.0,87,0.00,,,0.00,WeatherCatV1.15B25,2013-09-13 06:42:00,
2013-09-13 01:47:00,74.9,70.8,29.95,NNE,21,2.0,2.0,87,0.00,,,0.00,WeatherCatV1.15B25,2013-09-13 06:47:00,
2013-09-13 01:52:00,74.8,70.7,29.95,NNE,21,2.0,2.0,87,0.00,,,0.00,WeatherCatV1.15B25,2013-09-13 06:52:00,
2013-09-13 01:57:00,74.8,70.7,29.95,NNE,21,3.0,4.0,87,0.00,,,0.00,WeatherCatV1.15B25,2013-09-13 06:57:00,
2013-09-13 02:02:00,74.7,70.6,29.95,NNE,21,2.0,3.0,87,0.00,,,0.00,WeatherCatV1.15B25,2013-09-13 07:02:00,
2013-09-13 02:07:00,74.6,70.8,29.95,NNE,21,3.0,3.0,88,0.00,,,0.00,WeatherCatV1.15B25,2013-09-13 07:07:00,
2013-09-13 02:12:00,74.5,70.7,29.95,NNE,21,0.0,2.0,88,0.00,,,0.00,WeatherCatV1.15B25,2013-09-13 07:12:00,
2013-09-13 02:17:00,74.4,70.6,29.95,NNE,21,1.0,2.0,88,0.00,,,0.00,WeatherCatV1.15B25,2013-09-13 07:17:00,
2013-09-13 02:22:00,74.4,70.6,29.95,NNE,21,2.0,4.0,88,0.00,,,0.00,WeatherCatV1.15B25,2013-09-13 07:22:00,
2013-09-13 02:27:00,74.4,70.6,29.95,NNE,21,2.0,2.0,88,0.00,,,0.00,WeatherCatV1.15B25,2013-09-13 07:27:00,
2013-09-13 02:32:00,74.4,70.6,29.95,NNE,21,0.0,2.0,88,0.00,,,0.00,WeatherCatV1.15B25,2013-09-13 07:32:00,
2013-09-13 02:37:00,74.3,70.5,29.94,NNE,21,1.0,2.0,88,0.00,,,0.00,WeatherCatV1.15B25,2013-09-13 07:37:00,
2013-09-13 02:42:00,74.2,70.4,29.94,NNE,21,0.0,1.0,88,0.00,,,0.00,WeatherCatV1.15B25,2013-09-13 07:42:00,
2013-09-13 02:47:00,74.2,70.4,29.94,NNE,21,0.0,2.0,88,0.00,,,0.00,WeatherCatV1.15B25,2013-09-13 07:47:00,
2013-09-13 02:52:00,74.1,70.3,29.94,NNE,21,2.0,2.0,88,0.00,,,0.00,WeatherCatV1.15B25,2013-09-13 07:52:00,
2013-09-13 02:57:00,74.1,70.6,29.94,NNE,21,2.0,3.0,89,0.00,,,0.00,WeatherCatV1.15B25,2013-09-13 07:57:00,
2013-09-13 03:02:00,74.0,70.5,29.94,NNE,21,0.0,3.0,89,0.00,,,0.00,WeatherCatV1.15B25,2013-09-13 08:02:00,
2013-09-13 03:07:00,74.1,70.6,29.94,NNE,21,3.0,3.0,89,0.00,,,0.00,WeatherCatV1.15B25,2013-09-13 08:07:00,
2013-09-13 03:12:00,74.1,70.6,29.94,NNE,21,2.0,3.0,89,0.00,,,0.00,WeatherCatV1.15B25,2013-09-13 08:12:00,
2013-09-13 03:17:00,74.0,70.5,29.93,NNE,21,2.0,3.0,89,0.00,,,0.00,WeatherCatV1.15B25,2013-09-13 08:17:00,
2013-09-13 03:22:00,74.1,70.6,29.94,NNE,21,3.0,5.0,89,0.00,,,0.00,WeatherCatV1.15B25,2013-09-13 08:22:00,
2013-09-13 03:27:00,74.2,70.7,29.94,NNE,21,3.0,4.0,89,0.00,,,0.00,WeatherCatV1.15B25,2013-09-13 08:27:00,
2013-09-13 03:32:00,74.2,70.7,29.94,NNE,21,1.0,4.0,89,0.00,,,0.00,WeatherCatV1.15B25,2013-09-13 08:32:00,
2013-09-13 03:37:00,74.3,70.8,29.94,NNE,21,3.0,4.0,89,0.00,,,0.00,WeatherCatV1.15B25,2013-09-13 08:37:00,
2013-09-13 03:42:00,74.3,70.8,29.94,NNE,21,4.0,5.0,89,0.00,,,0.00,WeatherCatV1.15B25,2013-09-13 08:42:00,
2013-09-13 03:47:00,74.3,70.8,29.93,NNE,19,2.0,7.0,89,0.00,,,0.00,WeatherCatV1.15B25,2013-09-13 08:47:00,
2013-09-13 03:52:00,74.3,70.8,29.93,NNE,18,3.0,6.0,89,0.00,,,0.00,WeatherCatV1.15B25,2013-09-13 08:52:00,
2013-09-13 03:57:00,74.3,70.8,29.94,NNE,22,1.0,5.0,89,0.00,,,0.00,WeatherCatV1.15B25,2013-09-13 08:57:00,
2013-09-13 04:02:00,74.3,70.8,29.94,NNE,22,4.0,4.0,89,0.00,,,0.00,WeatherCatV1.15B25,2013-09-13 09:02:00,
2013-09-13 04:07:00,74.2,70.7,29.94,NNE,23,3.0,5.0,89,0.00,,,0.00,WeatherCatV1.15B25,2013-09-13 09:07:00,
2013-09-13 04:12:00,74.2,70.7,29.94,NNE,20,5.0,6.0,89,0.00,,,0.00,WeatherCatV1.15B25,2013-09-13 09:12:00,
2013-09-13 04:17:00,74.2,70.7,29.94,NNE,22,5.0,5.0,89,0.00,,,0.00,WeatherCatV1.15B25,2013-09-13 09:17:00,
2013-09-13 04:22:00,74.2,70.7,29.94,NNE,17,3.0,6.0,89,0.00,,,0.00,WeatherCatV1.15B25,2013-09-13 09:22:00,
2013-09-13 04:27:00,74.1,70.6,29.94,NNE,17,5.0,6.0,89,0.00,,,0.00,WeatherCatV1.15B25,2013-09-13 09:27:00,
2013-09-13 04:32:00,74.1,71.0,29.94,NNE,12,4.0,6.0,90,0.00,,,0.00,WeatherCatV1.15B25,2013-09-13 09:32:00,
2013-09-13 04:37:00,74.0,70.5,29.94,NNE,12,2.0,6.0,89,0.00,,,0.00,WeatherCatV1.15B25,2013-09-13 09:37:00,
2013-09-13 04:42:00,74.0,70.5,29.94,NNE,12,1.0,4.0,89,0.00,,,0.00,WeatherCatV1.15B25,2013-09-13 09:42:00,
2013-09-13 04:47:00,73.9,70.8,29.94,NE,34,4.0,7.0,90,0.00,,,0.00,WeatherCatV1.15B25,2013-09-13 09:47:00,
2013-09-13 04:52:00,73.9,70.8,29.94,NNE,31,3.0,5.0,90,0.00,,,0.00,WeatherCatV1.15B25,2013-09-13 09:52:00,
2013-09-13 04:57:00,73.9,70.8,29.94,NNE,24,3.0,4.0,90,0.00,,,0.00,WeatherCatV1.15B25,2013-09-13 09:57:00,
2013-09-13 05:02:00,73.8,70.7,29.94,NNE,22,4.0,4.0,90,0.00,,,0.00,WeatherCatV1.15B25,2013-09-13 10:02:00,
2013-09-13 05:07:00,73.8,71.0,29.94,NNE,29,3.0,4.0,91,0.00,,,0.00,WeatherCatV1.15B25,2013-09-13 10:07:00,
2013-09-13 05:12:00,73.8,71.0,29.94,NNE,29,5.0,7.0,91,0.00,,,0.00,WeatherCatV1.15B25,2013-09-13 10:12:00,
2013-09-13 05:17:00,73.8,71.0,29.94,NNE,27,3.0,7.0,91,0.00,,,0.00,WeatherCatV1.15B25,2013-09-13 10:17:00,
2013-09-13 05:22:00,73.8,71.0,29.94,NE,38,3.0,6.0,91,0.00,,,0.00,WeatherCatV1.15B25,2013-09-13 10:22:00,
2013-09-13 05:27:00,73.9,71.1,29.94,NE,35,6.0,7.0,91,0.00,,,0.00,WeatherCatV1.15B25,2013-09-13 10:27:00,
2013-09-13 05:32:00,73.9,71.1,29.94,NNE,32,5.0,7.0,91,0.00,,,0.00,WeatherCatV1.15B25,2013-09-13 10:32:00,
2013-09-13 05:37:00,74.0,71.2,29.94,NE,50,4.0,7.0,91,0.00,,,0.00,WeatherCatV1.15B25,2013-09-13 10:37:00,
2013-09-13 05:42:00,74.0,70.9,29.94,NNE,24,5.0,5.0,90,0.00,,,0.00,WeatherCatV1.15B25,2013-09-13 10:42:00,
2013-09-13 05:47:00,74.0,70.9,29.94,NE,46,5.0,5.0,90,0.00,,,0.00,WeatherCatV1.15B25,2013-09-13 10:47:00,
2013-09-13 05:52:00,74.1,71.0,29.95,NE,37,2.0,6.0,90,0.00,,,0.00,WeatherCatV1.15B25,2013-09-13 10:52:00,
2013-09-13 05:57:00,74.1,71.0,29.95,NE,37,5.0,6.0,90,0.00,,,0.00,WeatherCatV1.15B25,2013-09-13 10:57:00,
2013-09-13 06:02:00,74.1,71.0,29.95,NE,34,4.0,7.0,90,0.00,,,0.00,WeatherCatV1.15B25,2013-09-13 11:02:00,
2013-09-13 06:07:00,74.1,71.0,29.95,North,5,5.0,6.0,90,0.00,,,0.00,WeatherCatV1.15B25,2013-09-13 11:07:00,
2013-09-13 06:12:00,74.0,70.9,29.95,NNE,22,2.0,7.0,90,0.00,,,0.00,WeatherCatV1.15B25,2013-09-13 11:12:00,
2013-09-13 06:17:00,74.0,70.5,29.95,NE,54,5.0,6.0,89,0.00,,,0.00,WeatherCatV1.15B25,2013-09-13 11:17:00,
2013-09-13 06:22:00,73.9,70.4,29.95,North,5,6.0,6.0,89,0.00,,,0.00,WeatherCatV1.15B25,2013-09-13 11:22:00,
2013-09-13 06:27:00,73.9,70.4,29.95,NNE,29,5.0,6.0,89,0.00,,,0.00,WeatherCatV1.15B25,2013-09-13 11:27:00,
2013-09-13 06:32:00,73.9,70.8,29.95,North,9,5.0,8.0,90,0.00,,,0.00,WeatherCatV1.15B25,2013-09-13 11:32:00,
2013-09-13 06:37:00,73.8,70.3,29.96,North,5,7.0,7.0,89,0.00,,,0.00,WeatherCatV1.15B25,2013-09-13 11:37:00,
2013-09-13 06:42:00,73.8,70.3,29.96,NE,36,4.0,7.0,89,0.00,,,0.00,WeatherCatV1.15B25,2013-09-13 11:42:00,
2013-09-13 06:47:00,73.8,70.3,29.96,NNE,30,5.0,7.0,89,0.00,,,0.00,WeatherCatV1.15B25,2013-09-13 11:47:00,
2013-09-13 06:52:00,73.7,70.2,29.96,NE,50,5.0,7.0,89,0.00,,,0.00,WeatherCatV1.15B25,2013-09-13 11:52:00,
2013-09-13 06:57:00,73.7,69.9,29.96,NE,39,4.0,7.0,88,0.00,,,0.00,WeatherCatV1.15B25,2013-09-13 11:57:00,
2013-09-13 07:02:00,73.7,69.9,29.96,NNE,28,4.0,8.0,88,0.00,,,0.00,WeatherCatV1.15B25,2013-09-13 12:02:00,
2013-09-13 07:07:00,73.7,69.9,29.96,ENE,59,7.0,7.0,88,0.00,,,0.00,WeatherCatV1.15B25,2013-09-13 12:07:00,
2013-09-13 07:12:00,73.7,69.6,29.97,NNE,30,5.0,6.0,87,0.00,,,0.00,WeatherCatV1.15B25,2013-09-13 12:12:00,
2013-09-13 07:17:00,73.8,69.7,29.97,NNE,25,4.0,8.0,87,0.00,,,0.00,WeatherCatV1.15B25,2013-09-13 12:17:00,
2013-09-13 07:22:00,73.8,69.7,29.97,NE,35,4.0,7.0,87,0.00,,,0.00,WeatherCatV1.15B25,2013-09-13 12:22:00,
2013-09-13 07:27:00,73.9,69.4,29.97,NNE,13,9.0,9.0,86,0.00,,,0.00,WeatherCatV1.15B25,2013-09-13 12:27:00,
2013-09-13 07:32:00,74.0,69.5,29.97,NNE,17,6.0,7.0,86,0.00,,,0.00,WeatherCatV1.15B25,2013-09-13 12:32:00,
2013-09-13 07:37:00,74.1,69.6,29.97,NNE,30,6.0,9.0,86,0.00,,,0.00,WeatherCatV1.15B25,2013-09-13 12:37:00,
2013-09-13 07:42:00,74.2,69.4,29.97,NE,36,5.0,7.0,85,0.00,,,0.00,WeatherCatV1.15B25,2013-09-13 12:42:00,
2013-09-13 07:47:00,74.4,69.2,29.97,ENE,63,8.0,9.0,84,0.00,,,0.00,WeatherCatV1.15B25,2013-09-13 12:47:00,
2013-09-13 07:52:00,74.6,69.4,29.97,NE,52,5.0,11.0,84,0.00,,,0.00,WeatherCatV1.15B25,2013-09-13 12:52:00,
2013-09-13 07:57:00,74.7,69.2,29.97,NNE,24,6.0,9.0,83,0.00,,,0.00,WeatherCatV1.15B25,2013-09-13 12:57:00,
2013-09-13 08:02:00,74.8,69.3,29.97,NE,51,5.0,6.0,83,0.00,,,0.00,WeatherCatV1.15B25,2013-09-13 13:02:00,
2013-09-13 08:07:00,74.9,69.4,29.97,NE,37,9.0,9.0,83,0.00,,,0.00,WeatherCatV1.15B25,2013-09-13 13:07:00,
2013-09-13 08:12:00,75.0,69.1,29.97,ENE,65,8.0,8.0,82,0.00,,,0.00,WeatherCatV1.15B25,2013-09-13 13:12:00,
2013-09-13 08:17:00,75.3,69.4,29.97,NNE,18,5.0,8.0,82,0.00,,,0.00,WeatherCatV1.15B25,2013-09-13 13:17:00,
2013-09-13 08:22:00,75.6,69.3,29.97,NE,46,6.0,14.0,81,0.00,,,0.00,WeatherCatV1.15B25,2013-09-13 13:22:00,
2013-09-13 08:27:00,75.7,69.1,29.97,NE,36,8.0,13.0,80,0.00,,,0.00,WeatherCatV1.15B25,2013-09-13 13:27:00,
2013-09-13 08:32:00,75.9,68.9,29.97,NNE,30,6.0,12.0,79,0.00,,,0.00,WeatherCatV1.15B25,2013-09-13 13:32:00,
2013-09-13 08:37:00,76.2,68.8,29.98,ENE,65,5.0,11.0,78,0.00,,,0.00,WeatherCatV1.15B25,2013-09-13 13:37:00,
2013-09-13 08:42:00,76.6,68.8,29.98,NE,53,8.0,8.0,77,0.00,,,0.00,WeatherCatV1.15B25,2013-09-13 13:42:00,
2013-09-13 08:47:00,76.9,68.7,29.98,ENE,70,7.0,11.0,76,0.00,,,0.00,WeatherCatV1.15B25,2013-09-13 13:47:00,
2013-09-13 08:52:00,77.2,68.6,29.98,NE,43,8.0,9.0,75,0.00,,,0.00,WeatherCatV1.15B25,2013-09-13 13:52:00,
2013-09-13 08:57:00,77.5,68.1,29.98,NNE,32,9.0,13.0,73,0.00,,,0.00,WeatherCatV1.15B25,2013-09-13 13:57:00,
2013-09-13 09:02:00,77.7,67.9,29.98,NE,46,7.0,14.0,72,0.00,,,0.00,WeatherCatV1.15B25,2013-09-13 14:02:00,
2013-09-13 09:07:00,77.8,68.0,29.99,NE,36,6.0,13.0,72,0.00,,,0.00,WeatherCatV1.15B25,2013-09-13 14:07:00,
2013-09-13 09:12:00,78.3,68.1,29.99,NNE,20,6.0,9.0,71,0.00,,,0.00,WeatherCatV1.15B25,2013-09-13 14:12:00,
2013-09-13 09:17:00,78.8,68.2,29.99,NNE,14,6.0,12.0,70,0.00,,,0.00,WeatherCatV1.15B25,2013-09-13 14:17:00,
2013-09-13 09:22:00,79.0,67.9,29.99,NE,42,7.0,12.0,69,0.00,,,0.00,WeatherCatV1.15B25,2013-09-13 14:22:00,
2013-09-13 09:27:00,79.0,67.5,29.99,NNE,30,6.0,10.0,68,0.00,,,0.00,WeatherCatV1.15B25,2013-09-13 14:27:00,
2013-09-13 09:32:00,79.3,67.8,29.99,NNE,32,6.0,9.0,68,0.00,,,0.00,WeatherCatV1.15B25,2013-09-13 14:32:00,
2013-09-13 09:37:00,79.6,67.2,29.99,NE,53,10.0,11.0,66,0.00,,,0.00,WeatherCatV1.15B25,2013-09-13 14:37:00,
2013-09-13 09:42:00,79.8,67.8,29.99,NE,46,5.0,9.0,67,0.00,,,0.00,WeatherCatV1.15B25,2013-09-13 14:42:00,
2013-09-13 09:47:00,79.8,67.8,29.99,NE,51,7.0,8.0,67,0.00,,,0.00,WeatherCatV1.15B25,2013-09-13 14:47:00,
2013-09-13 09:52:00,80.0,67.2,29.99,NNE,15,9.0,13.0,65,0.00,,,0.00,WeatherCatV1.15B25,2013-09-13 14:52:00,
2013-09-13 09:57:00,80.0,67.2,29.99,NE,51,10.0,11.0,65,0.00,,,0.00,WeatherCatV1.15B25,2013-09-13 14:57:00,
2013-09-13 10:02:00,80.3,67.4,29.99,NE,55,6.0,13.0,65,0.00,,,0.00,WeatherCatV1.15B25,2013-09-13 15:02:00,
2013-09-13 10:07:00,80.8,67.5,30.00,NNE,19,5.0,12.0,64,0.00,,,0.00,WeatherCatV1.15B25,2013-09-13 15:07:00,
2013-09-13 10:12:00,80.8,67.5,29.99,NE,48,10.0,10.0,64,0.00,,,0.00,WeatherCatV1.15B25,2013-09-13 15:12:00,
2013-09-13 10:17:00,80.8,67.5,30.00,North,5,11.0,11.0,64,0.00,,,0.00,WeatherCatV1.15B25,2013-09-13 15:17:00,
2013-09-13 10:22:00,81.3,67.0,30.00,NNE,17,10.0,11.0,62,0.00,,,0.00,WeatherCatV1.15B25,2013-09-13 15:22:00,
2013-09-13 10:27:00,81.2,66.4,30.00,NE,34,8.0,12.0,61,0.00,,,0.00,WeatherCatV1.15B25,2013-09-13 15:27:00,
2013-09-13 10:32:00,81.1,66.4,30.00,North,355,7.0,10.0,61,0.00,,,0.00,WeatherCatV1.15B25,2013-09-13 15:32:00,
2013-09-13 10:37:00,81.2,66.4,30.00,NNE,33,8.0,9.0,61,0.00,,,0.00,WeatherCatV1.15B25,2013-09-13 15:37:00,
2013-09-13 10:42:00,81.4,66.2,30.00,NE,40,6.0,7.0,60,0.00,,,0.00,WeatherCatV1.15B25,2013-09-13 15:42:00,
2013-09-13 10:47:00,81.6,65.9,29.99,NE,46,3.0,8.0,59,0.00,,,0.00,WeatherCatV1.15B25,2013-09-13 15:47:00,
2013-09-13 10:52:00,81.4,65.7,29.99,NNE,26,8.0,11.0,59,0.00,,,0.00,WeatherCatV1.15B25,2013-09-13 15:52:00,
2013-09-13 10:57:00,81.1,65.9,30.00,NNE,22,8.0,8.0,60,0.00,,,0.00,WeatherCatV1.15B25,2013-09-13 15:57:00,
2013-09-13 11:02:00,81.0,65.8,30.00,NE,42,8.0,11.0,60,0.00,,,0.00,WeatherCatV1.15B25,2013-09-13 16:02:00,
2013-09-13 11:07:00,80.8,65.6,30.00,NNE,22,4.0,9.0,60,0.00,,,0.00,WeatherCatV1.15B25,2013-09-13 16:07:00,
2013-09-13 11:12:00,80.8,66.1,30.00,NNE,18,6.0,6.0,61,0.00,,,0.00,WeatherCatV1.15B25,2013-09-13 16:12:00,
2013-09-13 11:17:00,81.0,65.8,30.00,North,10,5.0,7.0,60,0.00,,,0.00,WeatherCatV1.15B25,2013-09-13 16:17:00,
2013-09-13 11:22:00,81.5,65.8,30.00,North,10,4.0,9.0,59,0.00,,,0.00,WeatherCatV1.15B25,2013-09-13 16:22:00,
2013-09-13 11:27:00,82.0,65.7,30.00,North,0,6.0,9.0,58,0.00,,,0.00,WeatherCatV1.15B25,2013-09-13 16:27:00,
2013-09-13 11:32:00,82.2,65.9,29.99,North,0,5.0,7.0,58,0.00,,,0.00,WeatherCatV1.15B25,2013-09-13 16:32:00,
2013-09-13 11:37:00,82.4,65.6,29.99,North,355,11.0,11.0,57,0.00,,,0.00,WeatherCatV1.15B25,2013-09-13 16:37:00,
2013-09-13 11:42:00,82.6,66.3,29.99,ENE,65,3.0,5.0,58,0.00,,,0.00,WeatherCatV1.15B25,2013-09-13 16:42:00,
2013-09-13 11:47:00,82.9,65.6,29.99,NE,42,9.0,10.0,56,0.00,,,0.00,WeatherCatV1.15B25,2013-09-13 16:47:00,
2013-09-13 11:52:00,83.1,65.7,29.99,NE,36,4.0,9.0,56,0.00,,,0.00,WeatherCatV1.15B25,2013-09-13 16:52:00,
2013-09-13 11:57:00,83.4,66.0,29.99,NE,55,5.0,10.0,56,0.00,,,0.00,WeatherCatV1.15B25,2013-09-13 16:57:00,
2013-09-13 12:02:00,83.7,66.3,29.98,ENE,63,5.0,8.0,56,0.00,,,0.00,WeatherCatV1.15B25,2013-09-13 17:02:00,
2013-09-13 12:07:00,83.9,66.0,29.98,North,11,5.0,7.0,55,0.00,,,0.00,WeatherCatV1.15B25,2013-09-13 17:07:00,
2013-09-13 12:12:00,84.5,65.5,29.98,NE,44,6.0,11.0,53,0.00,,,0.00,WeatherCatV1.15B25,2013-09-13 17:12:00,
2013-09-13 12:17:00,84.8,65.2,29.98,NNE,30,7.0,12.0,52,0.00,,,0.00,WeatherCatV1.15B25,2013-09-13 17:17:00,
2013-09-13 12:22:00,84.7,65.1,29.98,NNE,16,6.0,10.0,52,0.00,,,0.00,WeatherCatV1.15B25,2013-09-13 17:22:00,
2013-09-13 12:27:00,85.3,65.1,29.98,NNE,24,9.0,9.0,51,0.00,,,0.00,WeatherCatV1.15B25,2013-09-13 17:27:00,
2013-09-13 12:32:00,85.5,64.7,29.98,NE,51,7.0,10.0,50,0.00,,,0.00,WeatherCatV1.15B25,2013-09-13 17:32:00,
2013-09-13 12:37:00,85.3,64.5,29.98,ENE,61,9.0,9.0,50,0.00,,,0.00,WeatherCatV1.15B25,2013-09-13 17:37:00,
2013-09-13 12:42:00,86.4,64.9,29.97,North,0,7.0,10.0,49,0.00,,,0.00,WeatherCatV1.15B25,2013-09-13 17:42:00,
2013-09-13 12:47:00,86.7,64.0,29.97,NNE,33,9.0,10.0,47,0.00,,,0.00,WeatherCatV1.15B25,2013-09-13 17:47:00,
2013-09-13 12:52:00,86.4,63.7,29.97,North,355,5.0,10.0,47,0.00,,,0.00,WeatherCatV1.15B25,2013-09-13 17:52:00,
2013-09-13 12:57:00,86.8,63.5,29.97,NE,56,8.0,8.0,46,0.00,,,0.00,WeatherCatV1.15B25,2013-09-13 17:57:00,
2013-09-13 13:02:00,86.9,63.6,29.96,North,0,6.0,11.0,46,0.00,,,0.00,WeatherCatV1.15B25,2013-09-13 18:02:00,
2013-09-13 13:07:00,87.3,63.3,29.96,North,355,5.0,12.0,45,0.00,,,0.00,WeatherCatV1.15B25,2013-09-13 18:07:00,
2013-09-13 13:12:00,87.7,63.0,29.96,North,5,5.0,8.0,44,0.00,,,0.00,WeatherCatV1.15B25,2013-09-13 18:12:00,
2013-09-13 13:17:00,88.0,63.3,29.96,NE,44,8.0,9.0,44,0.00,,,0.00,WeatherCatV1.15B25,2013-09-13 18:17:00,
2013-09-13 13:22:00,87.8,62.5,29.96,NNE,24,11.0,12.0,43,0.00,,,0.00,WeatherCatV1.15B25,2013-09-13 18:22:00,
2013-09-13 13:27:00,87.7,62.4,29.96,NNE,33,6.0,9.0,43,0.00,,,0.00,WeatherCatV1.15B25,2013-09-13 18:27:00,
2013-09-13 13:32:00,87.7,61.7,29.96,ENE,73,4.0,15.0,42,0.00,,,0.00,WeatherCatV1.15B25,2013-09-13 18:32:00,
2013-09-13 13:37:00,87.9,62.6,29.96,NE,53,2.0,7.0,43,0.00,,,0.00,WeatherCatV1.15B25,2013-09-13 18:37:00,
2013-09-13 13:42:00,87.9,61.9,29.95,ENE,65,13.0,13.0,42,0.00,,,0.00,WeatherCatV1.15B25,2013-09-13 18:42:00,
2013-09-13 13:47:00,87.6,60.9,29.95,ESE,114,12.0,15.0,41,0.00,,,0.00,WeatherCatV1.15B25,2013-09-13 18:47:00,
2013-09-13 13:52:00,87.6,61.6,29.95,NE,53,6.0,11.0,42,0.00,,,0.00,WeatherCatV1.15B25,2013-09-13 18:52:00,
2013-09-13 13:57:00,87.7,61.7,29.95,NNE,30,6.0,12.0,42,0.00,,,0.00,WeatherCatV1.15B25,2013-09-13 18:57:00,
2013-09-13 14:02:00,87.7,61.0,29.94,NNE,33,7.0,8.0,41,0.00,,,0.00,WeatherCatV1.15B25,2013-09-13 19:02:00,
2013-09-13 14:07:00,87.6,61.6,29.94,North,9,6.0,13.0,42,0.00,,,0.00,WeatherCatV1.15B25,2013-09-13 19:07:00,
2013-09-13 14:12:00,88.5,62.4,29.94,NNW,340,7.0,11.0,42,0.00,,,0.00,WeatherCatV1.15B25,2013-09-13 19:12:00,
2013-09-13 14:17:00,88.6,61.8,29.94,NE,42,11.0,15.0,41,0.00,,,0.00,WeatherCatV1.15B25,2013-09-13 19:17:00,
2013-09-13 14:22:00,88.7,61.9,29.94,NNW,346,8.0,9.0,41,0.00,,,0.00,WeatherCatV1.15B25,2013-09-13 19:22:00,
2013-09-13 14:27:00,88.4,61.7,29.94,North,5,8.0,11.0,41,0.00,,,0.00,WeatherCatV1.15B25,2013-09-13 19:27:00,
2013-09-13 14:32:00,88.4,62.3,29.94,NNW,344,7.0,8.0,42,0.00,,,0.00,WeatherCatV1.15B25,2013-09-13 19:32:00,
2013-09-13 14:37:00,88.6,61.8,29.93,NE,49,6.0,12.0,41,0.00,,,0.00,WeatherCatV1.15B25,2013-09-13 19:37:00,
2013-09-13 14:42:00,88.1,61.4,29.93,North,0,8.0,13.0,41,0.00,,,0.00,WeatherCatV1.15B25,2013-09-13 19:42:00,
2013-09-13 14:47:00,88.2,62.2,29.93,NNE,13,7.0,14.0,42,0.00,,,0.00,WeatherCatV1.15B25,2013-09-13 19:47:00,
2013-09-13 14:52:00,87.8,61.1,29.93,NNE,25,5.0,12.0,41,0.00,,,0.00,WeatherCatV1.15B25,2013-09-13 19:52:00,
2013-09-13 14:57:00,87.7,61.0,29.93,NNE,30,9.0,13.0,41,0.00,,,0.00,WeatherCatV1.15B25,2013-09-13 19:57:00,
2013-09-13 15:02:00,87.0,59.7,29.93,North,355,10.0,13.0,40,0.00,,,0.00,WeatherCatV1.15B25,2013-09-13 20:02:00,
2013-09-13 15:07:00,86.1,59.6,29.93,NNE,19,8.0,12.0,41,0.00,,,0.00,WeatherCatV1.15B25,2013-09-13 20:07:00,
2013-09-13 15:12:00,86.3,59.8,29.93,NE,34,9.0,13.0,41,0.00,,,0.00,WeatherCatV1.15B25,2013-09-13 20:12:00,
2013-09-13 15:17:00,86.5,60.0,29.92,NNE,17,6.0,10.0,41,0.00,,,0.00,WeatherCatV1.15B25,2013-09-13 20:17:00,
2013-09-13 15:22:00,86.7,59.5,29.92,NNE,23,6.0,15.0,40,0.00,,,0.00,WeatherCatV1.15B25,2013-09-13 20:22:00,
2013-09-13 15:27:00,86.4,60.6,29.92,North,5,8.0,8.0,42,0.00,,,0.00,WeatherCatV1.15B25,2013-09-13 20:27:00,
2013-09-13 15:32:00,86.3,60.5,29.92,North,355,10.0,12.0,42,0.00,,,0.00,WeatherCatV1.15B25,2013-09-13 20:32:00,
2013-09-13 15:37:00,85.7,61.2,29.92,NNE,30,10.0,11.0,44,0.00,,,0.00,WeatherCatV1.15B25,2013-09-13 20:37:00,
2013-09-13 15:42:00,85.7,60.6,29.92,NNW,342,8.0,12.0,43,0.00,,,0.00,WeatherCatV1.15B25,2013-09-13 20:42:00,
2013-09-13 15:47:00,85.6,59.8,29.92,NNE,17,11.0,12.0,42,0.00,,,0.00,WeatherCatV1.15B25,2013-09-13 20:47:00,
2013-09-13 15:52:00,85.4,60.3,29.92,NNE,15,13.0,14.0,43,0.00,,,0.00,WeatherCatV1.15B25,2013-09-13 20:52:00,
2013-09-13 15:57:00,84.9,60.5,29.92,NE,49,9.0,12.0,44,0.00,,,0.00,WeatherCatV1.15B25,2013-09-13 20:57:00,
2013-09-13 16:02:00,84.3,61.2,29.92,North,5,7.0,13.0,46,0.00,,,0.00,WeatherCatV1.15B25,2013-09-13 21:02:00,
2013-09-13 16:07:00,84.3,61.8,29.92,North,355,13.0,13.0,47,0.00,,,0.00,WeatherCatV1.15B25,2013-09-13 21:07:00,
2013-09-13 16:12:00,84.4,61.3,29.92,North,5,10.0,14.0,46,0.00,,,0.00,WeatherCatV1.15B25,2013-09-13 21:12:00,
2013-09-13 16:17:00,84.6,61.5,29.91,NNE,26,7.0,13.0,46,0.00,,,0.00,WeatherCatV1.15B25,2013-09-13 21:17:00,
2013-09-13 16:22:00,84.9,61.8,29.92,NNE,24,12.0,12.0,46,0.00,,,0.00,WeatherCatV1.15B25,2013-09-13 21:22:00,
2013-09-13 16:27:00,84.4,61.3,29.91,NE,44,6.0,11.0,46,0.00,,,0.00,WeatherCatV1.15B25,2013-09-13 21:27:00,
2013-09-13 16:32:00,84.3,60.6,29.92,NE,36,9.0,13.0,45,0.00,,,0.00,WeatherCatV1.15B25,2013-09-13 21:32:00,
2013-09-13 16:37:00,84.2,61.1,29.91,NNE,33,14.0,14.0,46,0.00,,,0.00,WeatherCatV1.15B25,2013-09-13 21:37:00,
2013-09-13 16:40:00,84.1,61.1,29.91,NNE,23,9.0,12.0,46,0.00,,,0.00,WeatherCatV1.15B25,2013-09-13 21:40:00,
2013-09-13 16:42:00,84.1,61.7,29.91,NNE,13,7.0,9.0,47,0.00,,,0.00,WeatherCatV1.15B25,2013-09-13 21:42:00,
2013-09-13 16:45:00,84.1,61.7,29.91,NNE,19,9.0,10.0,47,0.00,,,0.00,WeatherCatV1.15B25,2013-09-13 21:45:00,
2013-09-13 16:50:00,84.0,61.6,29.91,NNE,19,9.0,10.0,47,0.00,,,0.00,WeatherCatV1.15B25,2013-09-13 21:50:00,
2013-09-13 16:55:00,84.0,61.6,29.91,NNE,19,9.0,10.0,47,0.00,,,0.00,WeatherCatV1.15B25,2013-09-13 21:55:00,
2013-09-13 17:00:00,83.9,61.6,29.91,NNE,19,8.9,9.9,47,0.00,,,0.00,WeatherCatV1.15B25,2013-09-13 22:00:00,
2013-09-13 17:05:00,83.8,61.6,29.91,NNE,19,8.9,9.9,47,0.00,,,0.00,WeatherCatV1.15B25,2013-09-13 22:05:00,
2013-09-13 17:10:00,83.8,61.5,29.92,NNE,19,8.9,9.9,47,0.00,,,0.00,WeatherCatV1.15B25,2013-09-13 22:10:00,
2013-09-13 17:15:00,83.7,61.5,29.92,NNE,19,8.9,9.9,47,0.00,,,0.00,WeatherCatV1.15B25,2013-09-13 22:15:00,
2013-09-13 17:20:00,83.6,61.5,29.92,NNE,19,8.8,9.9,48,0.00,,,0.00,WeatherCatV1.15B25,2013-09-13 22:20:00,
2013-09-13 17:25:00,83.6,61.5,29.92,NNE,19,8.8,9.8,48,0.00,,,0.00,WeatherCatV1.15B25,2013-09-13 22:25:00,
2013-09-13 17:30:00,83.5,61.4,29.92,NNE,19,8.8,9.8,48,0.00,,,0.00,WeatherCatV1.15B25,2013-09-13 22:30:00,
2013-09-13 17:35:00,83.4,61.4,29.92,NNE,19,8.8,9.8,48,0.00,,,0.00,WeatherCatV1.15B25,2013-09-13 22:35:00,
2013-09-13 17:40:00,83.4,61.4,29.92,NNE,20,8.8,9.8,48,0.00,,,0.00,WeatherCatV1.15B25,2013-09-13 22:40:00,
2013-09-13 17:45:00,83.3,61.4,29.92,NNE,20,8.7,9.8,48,0.00,,,0.00,WeatherCatV1.15B25,2013-09-13 22:45:00,
2013-09-13 17:50:00,83.2,61.3,29.92,NNE,20,8.7,9.7,48,0.00,,,0.00,WeatherCatV1.15B25,2013-09-13 22:50:00,
2013-09-13 17:55:00,83.2,61.3,29.92,NNE,20,8.7,9.7,48,0.00,,,0.00,WeatherCatV1.15B25,2013-09-13 22:55:00,
2013-09-13 18:00:00,83.1,61.3,29.92,NNE,20,8.7,9.7,48,0.00,,,0.00,WeatherCatV1.15B25,2013-09-13 23:00:00,
2013-09-13 18:05:00,83.1,61.3,29.92,NNE,20,8.6,9.7,48,0.00,,,0.00,WeatherCatV1.15B25,2013-09-13 23:05:00,
2013-09-13 18:10:00,83.0,61.2,29.92,NNE,20,8.6,9.7,48,0.00,,,0.00,WeatherCatV1.15B25,2013-09-13 23:10:00,
2013-09-13 18:15:00,82.9,61.2,29.92,NNE,20,8.6,9.7,48,0.00,,,0.00,WeatherCatV1.15B25,2013-09-13 23:15:00,
2013-09-13 18:20:00,82.9,61.2,29.92,NNE,20,8.6,9.6,48,0.00,,,0.00,WeatherCatV1.15B25,2013-09-13 23:20:00,
2013-09-13 18:25:00,82.8,61.2,29.92,NNE,20,8.6,9.6,49,0.00,,,0.00,WeatherCatV1.15B25,2013-09-13 23:25:00,
2013-09-13 18:30:00,82.7,61.2,29.92,NNE,20,8.5,9.6,49,0.00,,,0.00,WeatherCatV1.15B25,2013-09-13 23:30:00,
2013-09-13 18:35:00,82.7,61.1,29.92,NNE,20,8.5,9.6,49,0.00,,,0.00,WeatherCatV1.15B25,2013-09-13 23:35:00,
2013-09-13 18:40:00,82.6,61.1,29.92,NNE,20,8.5,9.6,49,0.00,,,0.00,WeatherCatV1.15B25,2013-09-13 23:40:00,
2013-09-13 18:45:00,82.5,61.1,29.92,NNE,20,8.5,9.5,49,0.00,,,0.00,WeatherCatV1.15B25,2013-09-13 23:45:00,
2013-09-13 18:50:00,82.5,61.1,29.92,NNE,20,8.5,9.5,49,0.00,,,0.00,WeatherCatV1.15B25,2013-09-13 23:50:00,
2013-09-13 18:55:00,82.4,61.0,29.92,NNE,20,8.4,9.5,49,0.00,,,0.00,WeatherCatV1.15B25,2013-09-13 23:55:00,
2013-09-13 19:00:00,82.3,61.0,29.92,NNE,20,8.4,9.5,49,0.00,,,0.00,WeatherCatV1.15B25,2013-09-14 00:00:00,
2013-09-13 19:05:00,82.3,61.0,29.92,NNE,20,8.4,9.5,49,0.00,,,0.00,WeatherCatV1.15B25,2013-09-14 00:05:00,
2013-09-13 19:10:00,82.2,61.0,29.92,NNE,20,8.4,9.4,49,0.00,,,0.00,WeatherCatV1.15B25,2013-09-14 00:10:00,
2013-09-13 19:15:00,82.1,60.9,29.92,NNE,20,8.3,9.4,49,0.00,,,0.00,WeatherCatV1.15B25,2013-09-14 00:15:00,
2013-09-13 19:20:00,82.1,60.9,29.92,NNE,20,8.3,9.4,49,0.00,,,0.00,WeatherCatV1.15B25,2013-09-14 00:20:00,
2013-09-13 19:25:00,82.0,60.9,29.92,NNE,20,8.3,9.4,50,0.00,,,0.00,WeatherCatV1.15B25,2013-09-14 00:25:00,
2013-09-13 19:30:00,81.9,60.9,29.92,NNE,21,8.3,9.4,50,0.00,,,0.00,WeatherCatV1.15B25,2013-09-14 00:30:00,
2013-09-13 19:35:00,81.9,60.8,29.92,NNE,21,8.3,9.3,50,0.00,,,0.00,WeatherCatV1.15B25,2013-09-14 00:35:00,
2013-09-13 19:40:00,81.8,60.8,29.92,NNE,21,8.2,9.3,50,0.00,,,0.00,WeatherCatV1.15B25,2013-09-14 00:40:00,
2013-09-13 19:45:00,81.8,60.8,29.93,NNE,21,8.2,9.3,50,0.00,,,0.00,WeatherCatV1.15B25,2013-09-14 00:45:00,
2013-09-13 19:50:00,81.7,60.8,29.93,NNE,21,8.2,9.3,50,0.00,,,0.00,WeatherCatV1.15B25,2013-09-14 00:50:00,
2013-09-13 19:55:00,81.6,60.7,29.93,NNE,21,8.2,9.3,50,0.00,,,0.00,WeatherCatV1.15B25,2013-09-14 00:55:00,
2013-09-13 20:00:00,81.6,60.7,29.93,NNE,21,8.1,9.3,50,0.00,,,0.00,WeatherCatV1.15B25,2013-09-14 01:00:00,
2013-09-13 20:05:00,81.5,60.7,29.93,NNE,21,8.1,9.2,50,0.00,,,0.00,WeatherCatV1.15B25,2013-09-14 01:05:00,
2013-09-13 20:10:00,81.4,60.7,29.93,NNE,21,8.1,9.2,50,0.00,,,0.00,WeatherCatV1.15B25,2013-09-14 01:10:00,
2013-09-13 20:15:00,81.4,60.6,29.93,NNE,21,8.1,9.2,50,0.00,,,0.00,WeatherCatV1.15B25,2013-09-14 01:15:00,
2013-09-13 20:20:00,81.3,60.6,29.93,NNE,21,8.1,9.2,50,0.00,,,0.00,WeatherCatV1.15B25,2013-09-14 01:20:00,
2013-09-13 20:25:00,81.2,60.6,29.93,NNE,21,8.0,9.2,50,0.00,,,0.00,WeatherCatV1.15B25,2013-09-14 01:25:00,
2013-09-13 20:30:00,81.2,60.6,29.93,NNE,21,8.0,9.1,51,0.00,,,0.00,WeatherCatV1.15B25,2013-09-14 01:30:00,
2013-09-13 20:35:00,81.1,60.5,29.93,NNE,21,8.0,9.1,51,0.00,,,0.00,WeatherCatV1.15B25,2013-09-14 01:35:00,
2013-09-13 20:40:00,81.0,60.5,29.93,NNE,21,8.0,9.1,51,0.00,,,0.00,WeatherCatV1.15B25,2013-09-14 01:40:00,
2013-09-13 20:45:00,81.0,60.5,29.93,NNE,21,7.9,9.1,51,0.00,,,0.00,WeatherCatV1.15B25,2013-09-14 01:45:00,
2013-09-13 20:50:00,80.9,60.5,29.93,NNE,21,7.9,9.1,51,0.00,,,0.00,WeatherCatV1.15B25,2013-09-14 01:50:00,
2013-09-13 20:55:00,80.8,60.4,29.93,NNE,21,7.9,9.0,51,0.00,,,0.00,WeatherCatV1.15B25,2013-09-14 01:55:00,
2013-09-13 21:00:00,80.8,60.4,29.93,NNE,21,7.9,9.0,51,0.00,,,0.00,WeatherCatV1.15B25,2013-09-14 02:00:00,
2013-09-13 21:05:00,80.7,60.4,29.93,NNE,21,7.9,9.0,51,0.00,,,0.00,WeatherCatV1.15B25,2013-09-14 02:05:00,
2013-09-13 21:10:00,80.6,60.4,29.93,NNE,21,7.8,9.0,51,0.00,,,0.00,WeatherCatV1.15B25,2013-09-14 02:10:00,
2013-09-13 21:15:00,80.6,60.3,29.93,NNE,22,7.8,9.0,51,0.00,,,0.00,WeatherCatV1.15B25,2013-09-14 02:15:00,
2013-09-13 21:20:00,80.5,60.3,29.93,NNE,22,7.8,8.9,51,0.00,,,0.00,WeatherCatV1.15B25,2013-09-14 02:20:00,
2013-09-13 21:25:00,80.4,60.3,29.93,NNE,22,7.8,8.9,51,0.00,,,0.00,WeatherCatV1.15B25,2013-09-14 02:25:00,
2013-09-13 21:30:00,80.4,60.3,29.93,NNE,22,7.7,8.9,52,0.00,,,0.00,WeatherCatV1.15B25,2013-09-14 02:30:00,
2013-09-13 21:35:00,80.3,60.2,29.93,NNE,22,7.7,8.9,52,0.00,,,0.00,WeatherCatV1.15B25,2013-09-14 02:35:00,
2013-09-13 21:40:00,80.2,60.2,29.93,NNE,22,7.7,8.9,52,0.00,,,0.00,WeatherCatV1.15B25,2013-09-14 02:40:00,
2013-09-13 21:45:00,80.2,60.2,29.93,NNE,22,7.7,8.8,52,0.00,,,0.00,WeatherCatV1.15B25,2013-09-14 02:45:00,
2013-09-13 21:50:00,80.1,60.2,29.93,NNE,22,7.7,8.8,52,0.00,,,0.00,WeatherCatV1.15B25,2013-09-14 02:50:00,
2013-09-13 21:55:00,80.0,60.1,29.93,NNE,22,7.6,8.8,52,0.00,,,0.00,WeatherCatV1.15B25,2013-09-14 02:55:00,
2013-09-13 22:00:00,80.0,60.1,29.94,NNE,22,7.6,8.8,52,0.00,,,0.00,WeatherCatV1.15B25,2013-09-14 03:00:00,
2013-09-13 22:05:00,79.9,60.1,29.94,NNE,22,7.6,8.8,52,0.00,,,0.00,WeatherCatV1.15B25,2013-09-14 03:05:00,
2013-09-13 22:10:00,79.8,60.1,29.94,NNE,22,7.6,8.7,52,0.00,,,0.00,WeatherCatV1.15B25,2013-09-14 03:10:00,
2013-09-13 22:15:00,79.8,60.0,29.94,NNE,22,7.6,8.7,52,0.00,,,0.00,WeatherCatV1.15B25,2013-09-14 03:15:00,
2013-09-13 22:20:00,79.7,60.0,29.94,NNE,22,7.5,8.7,52,0.00,,,0.00,WeatherCatV1.15B25,2013-09-14 03:20:00,
2013-09-13 22:25:00,79.7,60.0,29.94,NNE,22,7.5,8.7,52,0.00,,,0.00,WeatherCatV1.15B25,2013-09-14 03:25:00,
2013-09-13 22:30:00,79.6,60.0,29.94,NNE,22,7.5,8.7,52,0.00,,,0.00,WeatherCatV1.15B25,2013-09-14 03:30:00,
2013-09-13 22:35:00,79.5,59.9,29.94,NNE,22,7.5,8.7,53,0.00,,,0.00,WeatherCatV1.15B25,2013-09-14 03:35:00,
2013-09-13 22:40:00,79.5,59.9,29.94,NNE,22,7.4,8.6,53,0.00,,,0.00,WeatherCatV1.15B25,2013-09-14 03:40:00,
2013-09-13 22:45:00,79.4,59.9,29.94,NNE,22,7.4,8.6,53,0.00,,,0.00,WeatherCatV1.15B25,2013-09-14 03:45:00,
2013-09-13 22:50:00,79.3,59.9,29.94,NNE,22,7.4,8.6,53,0.00,,,0.00,WeatherCatV1.15B25,2013-09-14 03:50:00,
2013-09-13 22:55:00,79.3,59.8,29.94,NNE,22,7.4,8.6,53,0.00,,,0.00,WeatherCatV1.15B25,2013-09-14 03:55:00,
2013-09-13 23:00:00,79.2,59.8,29.94,NNE,22,7.4,8.6,53,0.00,,,0.00,WeatherCatV1.15B25,2013-09-14 04:00:00,
2013-09-13 23:05:00,79.1,59.8,29.94,NNE,23,7.3,8.5,53,0.00,,,0.00,WeatherCatV1.15B25,2013-09-14 04:05:00,
2013-09-13 23:10:00,79.1,59.8,29.94,NNE,23,7.3,8.5,53,0.00,,,0.00,WeatherCatV1.15B25,2013-09-14 04:10:00,
2013-09-13 23:15:00,79.0,59.7,29.94,NNE,23,7.3,8.5,53,0.00,,,0.00,WeatherCatV1.15B25,2013-09-14 04:15:00,
2013-09-13 23:20:00,78.9,59.7,29.94,NNE,23,7.3,8.5,53,0.00,,,0.00,WeatherCatV1.15B25,2013-09-14 04:20:00,
2013-09-13 23:25:00,78.9,59.7,29.94,NNE,23,7.2,8.5,53,0.00,,,0.00,WeatherCatV1.15B25,2013-09-14 04:25:00,
2013-09-13 23:30:00,78.8,59.7,29.94,NNE,23,7.2,8.4,53,0.00,,,0.00,WeatherCatV1.15B25,2013-09-14 04:30:00,
2013-09-13 23:35:00,78.7,59.6,29.94,NNE,23,7.2,8.4,54,0.00,,,0.00,WeatherCatV1.15B25,2013-09-14 04:35:00,
2013-09-13 23:40:00,78.7,59.6,29.94,NNE,23,7.2,8.4,54,0.00,,,0.00,WeatherCatV1.15B25,2013-09-14 04:40:00,
2013-09-13 23:45:00,78.6,59.6,29.94,NNE,23,7.2,8.4,54,0.00,,,0.00,WeatherCatV1.15B25,2013-09-14 04:45:00,
2013-09-13 23:50:00,78.5,59.6,29.94,NNE,23,7.1,8.4,54,0.00,,,0.00,WeatherCatV1.15B25,2013-09-14 04:50:00,
2013-09-13 23:55:00,78.5,59.5,29.94,NNE,23,7.1,8.3,54,0.00,,,0.00,WeatherCatV1.15B25,2013-09-14 04:55:00,